Tracking 19245 objects as of 21-Aug-2018
HD Live streaming from Space Station
objects crossing your sky now

SL-24 R/B

Track SL-24 R/B now!
10-day predictions


NORAD ID: 40541
Int'l Code: 2015-014C
Perigee: 531.9 km
Apogee: 1,444.2 km
Inclination: 97.4 °
Period: 104.7 minutes
Semi major axis: 7359 km
RCS: Unknown
Launch date: March 25, 2015
Source: Commonwealth of Independent States (former USSR) (CIS)
Launch site: Orenburg, Russia (OREN)

Note: This is a ROCKET BODY
aabbcc
Your satellite tracking list
Your tracking list is empty




NASA's NSSDC Master Catalog

Two Line Element Set (TLE):
1 40541U 15014C   18232.20167226 -.00000018  00000-0  73127-5 0  9992
2 40541  97.3572 274.2536 0619815 317.3031  38.1501 13.75215394170765
Source of the keplerian elements: AFSPC